Flag for U.S.A. Weather past 2 weeks in Allentown, Pennsylvania, U.S.A.

Now
68 °F

Low clouds.


Feels Like: 68 °F
Forecast: 62 / 75 °F
Wind: 9 mph from West

Location: Lehigh Valley International Airport

Current Time: Jul 28, 2014 at 7:27:14 AM

Latest Report: Jul 28, 2014 at 6:51 AM


Visibility: 7 mi

Pressure: 29.56 "Hg

Humidity: 87%

Dew point: 64 °F

Location of AllentownLocation

Historic Weather in Allentown — Graph

°F

Allentown temperature yesterday

Maximum temperature yesterday: 87 °F (at 3:51 PM)
Minimum temperature yesterday: 68 °F (at 12:51 AM)
Average temperature yesterday: 77 °F

Past Weeks' High & Low Weather Summary

 TemperatureHumidityPressure
High91 °F (Jul 23, 3:51 PM)94% (Jul 14, 6:58 AM)30.25 "Hg (Jul 14, 6:58 AM)
Low55 °F (Jul 25, 5:51 AM)35% (Jul 25, 4:51 PM)29.52 "Hg (Jul 28, 4:51 AM)
Average73 °F69%29.97 "Hg
* Reported Jul 13 5:51 AM — Jul 28 5:51 AM, Allentown, Weather by CustomWeather, © 2014

Note: Actual official high and low records may vary slightly from our data, if they occured in-between our weather recording intervals... More about our weather records

Advertising

Allentown weather history for previous 24 hours

 ConditionsComfort  
Time TempWeatherWind HumidityBarometerVisibility
5:51 AM
Jul 28
68 °FOvercast.6 mph90%29.55 "Hg9 mi
4:51 AM68 °FOvercast.3 mph90%29.52 "Hg10 mi
3:51 AM69 °FLow clouds.6 mph87%29.54 "Hg10 mi
2:51 AM68 °FPassing clouds.No wind87%29.56 "Hg10 mi
1:51 AM68 °FPassing clouds.6 mph87%29.58 "Hg10 mi
12:51 AM67 °FPassing clouds.7 mph87%29.62 "Hg10 mi
11:51 PM
Jul 27
68 °FPartly cloudy.12 mph87%29.66 "Hg8 mi
10:56 PM72 °FStrong thunderstorms. Mostly cloudy.15 mph83%29.70 "Hg2 mi
9:51 PM76 °FThunderstorms. Fog.No wind88%29.69 "Hg5 mi
8:51 PM81 °FLight rain. Passing clouds.7 mph65%29.66 "Hg10 mi
7:51 PM84 °FSunny.3 mph53%29.65 "Hg10 mi
6:51 PM83 °FSunny.6 mph55%29.67 "Hg10 mi
5:51 PM86 °FSunny.6 mph48%29.67 "Hg10 mi
4:51 PM87 °FPassing clouds.9 mph46%29.70 "Hg10 mi
3:51 PM87 °FSunny.6 mph46%29.71 "Hg10 mi
2:51 PM86 °FPassing clouds.13 mph51%29.72 "Hg10 mi
1:51 PM85 °FSunny.13 mph53%29.73 "Hg10 mi
12:51 PM84 °FSunny.13 mph57%29.74 "Hg10 mi
11:51 AM81 °FBroken clouds.12 mph65%29.76 "Hg10 mi
10:51 AM79 °FPartly sunny.7 mph67%29.77 "Hg10 mi
9:51 AM75 °FMostly cloudy.9 mph76%29.78 "Hg10 mi
9:03 AM75 °FPartly sunny.8 mph83%29.78 "Hg7 mi
8:04 AM73 °FFog.6 mph89%29.78 "Hg5 mi
7:51 AM71 °FFog.No wind90%29.79 "Hg4 mi
7:00 AM72 °FFog.5 mph94%29.81 "Hg5 mi
Weather by CustomWeather, © 2014

See weather overviewHow to use our weather pages